This is the latest recevied weather packets stored in our database for station/object N4HAC. If no packets are shown the sender has not sent any weather packets the latest 10 day(s).
| Time | Temp. | Humidity | Pressure | Rain* | Wind** | Luminosity | Snow |
|---|---|---|---|---|---|---|---|
| 1777335267 | 15.56° C | 56% | 1016.8 hPa | 0 mm | - | 0 W/m² | - |
| 1777334964 | 15.56° C | 56% | 1016.9 hPa | 0 mm | - | 1 W/m² | - |
| 1777334661 | 15.56° C | 55% | 1017 hPa | 0 mm | - | 2 W/m² | - |
| 1777334359 | 15.56° C | 54% | 1017.1 hPa | 0 mm | - | 3 W/m² | - |
| 1777334055 | 16.11° C | 56% | 1017.1 hPa | 0 mm | - | 4 W/m² | - |
| 1777333750 | 16.11° C | 54% | 1017.3 hPa | 0 mm | - | 6 W/m² | - |
| 1777333447 | 16.11° C | 54% | 1017.1 hPa | 0 mm | - | 9 W/m² | - |
| 1777333144 | 16.67° C | 52% | 1017.2 hPa | 0 mm | - | 11 W/m² | - |
| 1777332842 | 17.22° C | 51% | 1017.4 hPa | 0 mm | - | 14 W/m² | - |
| 1777332539 | 17.22° C | 50% | 1017.2 hPa | 0 mm | - | 17 W/m² | - |
| 1777332235 | 17.78° C | 49% | 1017.1 hPa | 0 mm | - | 19 W/m² | - |
| 1777331933 | 17.78° C | 49% | 1017.1 hPa | 0 mm | - | 22 W/m² | - |
| 1777331630 | 18.33° C | 50% | 1017 hPa | 0 mm | - | 25 W/m² | - |
| 1777331327 | 18.33° C | 49% | 1017 hPa | 0 mm | - | 29 W/m² | - |
| 1777331024 | 18.89° C | 48% | 1017.2 hPa | 0 mm | - | 36 W/m² | - |
| 1777330722 | 18.89° C | 47% | 1016.8 hPa | 0 mm | - | 47 W/m² | - |
| 1777330419 | 19.44° C | 47% | 1016.8 hPa | 0 mm | - | 63 W/m² | - |
| 1777330116 | 19.44° C | 48% | 1016.9 hPa | 0 mm | - | 74 W/m² | - |
| 1777329815 | 19.44° C | 49% | 1016.7 hPa | 0 mm | - | 91 W/m² | - |
| 1777329513 | 19.44° C | 47% | 1016.7 hPa | 0 mm | - | 97 W/m² | - |
| 1777329210 | 19.44° C | 48% | 1016.5 hPa | 0 mm | - | 106 W/m² | - |
| 1777328907 | 19.44° C | 45% | 1016.8 hPa | 0 mm | - | 117 W/m² | - |
| 1777328606 | 20° C | 44% | 1016.8 hPa | 0 mm | - | 127 W/m² | - |
| 1777328303 | 20° C | 45% | 1016.8 hPa | 0 mm | - | 151 W/m² | - |
| 1777328001 | 20° C | 44% | 1016.7 hPa | 0 mm | - | 164 W/m² | - |
* Rain latest hour (hover to see other rain measurements)
** Current wind speed in m/s (hover to see current wind gust speed)